| time (UTC) | temp F | wind direction | speed MPH | gust MPH | rain 1hr in | rain 24hr in | rain mn in | humidity % | barometer mb |
| 20260509200053 | 90 | 328 | 2.0 | 0.0 | 0.00 | 0.00 | 0.00 | 43 | 1007.3 |
| 20260509194554 | 90 | 40 | 1.0 | 0.0 | 0.00 | 0.00 | 0.00 | 45 | 1007.5 |
| 20260509193047 | 89 | 246 | 2.0 | 0.0 | 0.00 | 0.00 | 0.00 | 48 | 1007.7 |
| 20260509191552 | 89 | 22 | 1.0 | 0.0 | 0.00 | 0.00 | 0.00 | 50 | 1007.7 |
| 20260509190047 | 88 | 247 | 3.0 | 0.0 | 0.00 | 0.00 | 0.00 | 47 | 1007.9 |
| 20260509184543 | 87 | 207 | 1.0 | 0.0 | 0.00 | 0.00 | 0.00 | 49 | 1008.0 |
| 20260509183042 | 88 | 267 | 1.0 | 0.0 | 0.00 | 0.00 | 0.00 | 48 | 1008.1 |
| 20260509181541 | 86 | 234 | 2.0 | 0.0 | 0.00 | 0.00 | 0.00 | 49 | 1008.4 |
| 20260509180037 | 86 | 186 | 2.0 | 0.0 | 0.00 | 0.00 | 0.00 | 49 | 1008.6 |
| 20260509174536 | 86 | 234 | 3.0 | 0.0 | 0.00 | 0.00 | 0.00 | 49 | 1008.6 |
| 20260509173033 | 86 | 283 | 2.0 | 0.0 | 0.00 | 0.00 | 0.00 | 55 | 1008.8 |
| 20260509171530 | 85 | 325 | 1.0 | 0.0 | 0.00 | 0.00 | 0.00 | 56 | 1008.9 |
| 20260509170024 | 84 | 217 | 1.0 | 0.0 | 0.00 | 0.00 | 0.00 | 57 | 1009.0 |
| 20260509164520 | 83 | 340 | 3.0 | 0.0 | 0.00 | 0.00 | 0.00 | 56 | 1009.1 |
| 20260509163021 | 82 | 273 | 4.0 | 0.0 | 0.00 | 0.00 | 0.00 | 57 | 1009.3 |
| 20260509161514 | 82 | 257 | 3.0 | 0.0 | 0.00 | 0.00 | 0.00 | 60 | 1009.3 |
| 20260509160013 | 81 | 360 | 2.0 | 0.0 | 0.00 | 0.00 | 0.00 | 62 | 1009.3 |
| 20260509154507 | 80 | 355 | 1.0 | 0.0 | 0.00 | 0.00 | 0.00 | 65 | 1009.2 |
| 20260509153007 | 79 | 17 | 3.0 | 0.0 | 0.00 | 0.00 | 0.00 | 66 | 1009.1 |
| 20260509151601 | 78 | 5 | 2.0 | 0.0 | 0.00 | 0.00 | 0.00 | 69 | 1009.1 |
| 20260509150055 | 77 | 306 | 4.0 | 0.0 | 0.00 | 0.00 | 0.00 | 67 | 1009.1 |
| 20260509144606 | 76 | 355 | 2.0 | 0.0 | 0.00 | 0.00 | 0.00 | 70 | 1009.1 |
| 20260509143049 | 75 | 315 | 2.0 | 0.0 | 0.00 | 0.00 | 0.00 | 76 | 1009.2 |
| 20260509141542 | 73 | 291 | 3.0 | 0.0 | 0.00 | 0.00 | 0.00 | 79 | 1009.4 |
| 20260509140056 | 72 | 290 | 4.0 | 0.0 | 0.00 | 0.00 | 0.00 | 80 | 1009.3 |
| 20260509134535 | 71 | 297 | 2.0 | 0.0 | 0.00 | 0.00 | 0.00 | 82 | 1009.4 |
| 20260509133032 | 70 | 283 | 3.0 | 0.0 | 0.00 | 0.00 | 0.00 | 82 | 1009.2 |
| 20260509131539 | 69 | 284 | 2.0 | 0.0 | 0.00 | 0.00 | 0.00 | 83 | 1009.2 |
| 20260509130029 | 69 | 230 | 2.0 | 0.0 | 0.00 | 0.00 | 0.00 | 84 | 1009.2 |
| 20260509124533 | 68 | 197 | 1.0 | 0.0 | 0.00 | 0.00 | 0.00 | 85 | 1009.3 |
| 20260509123026 | 66 | 190 | 0.0 | 0.0 | 0.00 | 0.00 | 0.00 | 84 | 1009.1 |
| 20260509121520 | 66 | 190 | 0.0 | 0.0 | 0.00 | 0.00 | 0.00 | 83 | 1009.1 |
| 20260509120017 | 66 | 217 | 0.0 | 0.0 | 0.00 | 0.00 | 0.00 | 82 | 1008.9 |
| 20260509114513 | 67 | 288 | 0.0 | 0.0 | 0.00 | 0.00 | 0.00 | 81 | 1008.7 |
| 20260509113009 | 68 | 288 | 0.0 | 0.0 | 0.00 | 0.00 | 0.00 | 80 | 1008.4 |
| 20260509111508 | 68 | 288 | 0.0 | 0.0 | 0.00 | 0.00 | 0.00 | 78 | 1008.0 |
| 20260509110006 | 69 | 288 | 1.0 | 0.0 | 0.00 | 0.00 | 0.00 | 77 | 1008.1 |
| 20260509104506 | 69 | 282 | 2.0 | 0.0 | 0.00 | 0.00 | 0.00 | 76 | 1007.9 |
| 20260509103004 | 69 | 247 | 2.0 | 0.0 | 0.00 | 0.00 | 0.00 | 79 | 1007.9 |
| 20260509101501 | 70 | 238 | 2.0 | 0.0 | 0.00 | 0.00 | 0.00 | 84 | 1008.0 |
| 20260509100103 | 70 | 288 | 3.0 | 0.0 | 0.00 | 0.00 | 0.00 | 86 | 1008.0 |
| 20260509094559 | 70 | 191 | 6.0 | 0.0 | 0.00 | 0.00 | 0.00 | 86 | 1006.9 |
| 20260509093058 | 71 | 134 | 5.0 | 0.0 | 0.00 | 0.00 | 0.00 | 88 | 1005.2 |
| 20260509091556 | 71 | 142 | 4.0 | 0.0 | 0.00 | 0.00 | 0.00 | 88 | 1004.7 |
| 20260509090105 | 71 | 157 | 6.0 | 0.0 | 0.00 | 0.00 | 0.00 | 88 | 1005.4 |
| 20260509084558 | 70 | 165 | 7.0 | 0.0 | 0.00 | 0.00 | 0.00 | 89 | 1005.6 |
| 20260509083057 | 70 | 161 | 6.0 | 0.0 | 0.00 | 0.00 | 0.00 | 90 | 1006.0 |
| 20260509081545 | 69 | 152 | 4.0 | 0.0 | 0.00 | 0.00 | 0.00 | 90 | 1006.7 |
| 20260509080047 | 69 | 138 | 3.0 | 0.0 | 0.00 | 0.00 | 0.00 | 90 | 1007.1 |
| 20260509074542 | 69 | 123 | 3.0 | 0.0 | 0.00 | 0.00 | 0.00 | 90 | 1007.5 |
| 20260509073039 | 70 | 171 | 1.0 | 0.0 | 0.00 | 0.00 | 0.00 | 90 | 1008.6 |
| 20260509071536 | 70 | 190 | 2.0 | 0.0 | 0.00 | 0.00 | 0.00 | 90 | 1009.4 |
| 20260509070036 | 69 | 275 | 3.0 | 0.0 | 0.00 | 0.00 | 0.00 | 91 | 1010.4 |
| 20260509064532 | 69 | 249 | 1.0 | 0.0 | 0.00 | 0.00 | 0.00 | 90 | 1010.4 |
| 20260509063032 | 69 | 250 | 0.0 | 0.0 | 0.00 | 0.00 | 0.00 | 90 | 1010.1 |
| 20260509061528 | 69 | 250 | 1.0 | 0.0 | 0.00 | 0.00 | 0.00 | 89 | 1010.1 |
| 20260509060024 | 69 | 250 | 1.0 | 0.0 | 0.00 | 0.00 | 0.00 | 89 | 1010.0 |
| 20260509054526 | 69 | 217 | 1.0 | 0.0 | 0.00 | 0.00 | 0.00 | 88 | 1009.7 |
| 20260509053020 | 70 | 134 | 0.0 | 0.0 | 0.00 | 0.00 | 0.00 | 88 | 1009.4 |
| 20260509051517 | 70 | 134 | 1.0 | 0.0 | 0.00 | 0.00 | 0.00 | 88 | 1008.8 |
| 20260509050014 | 70 | 134 | 1.0 | 0.0 | 0.00 | 0.00 | 0.00 | 87 | 1008.6 |
| 20260509044515 | 71 | 134 | 0.0 | 0.0 | 0.00 | 0.00 | 0.00 | 87 | 1008.9 |
| 20260509043012 | 71 | 134 | 0.0 | 0.0 | 0.00 | 0.00 | 0.00 | 86 | 1008.8 |
| 20260509041512 | 71 | 134 | 0.0 | 0.0 | 0.00 | 0.00 | 0.00 | 86 | 1009.0 |
| 20260509040011 | 71 | 134 | 0.0 | 0.0 | 0.00 | 0.00 | 0.00 | 86 | 1008.7 |
| 20260509034510 | 72 | 135 | 2.0 | 0.0 | 0.00 | 0.00 | 0.00 | 86 | 1008.3 |
| 20260509033010 | 72 | 139 | 2.0 | 0.0 | 0.00 | 0.00 | 0.00 | 85 | 1008.0 |
| 20260509031509 | 72 | 96 | 3.0 | 0.0 | 0.00 | 0.00 | 0.00 | 85 | 1007.7 |
| 20260509030009 | 72 | 121 | 4.0 | 0.0 | 0.00 | 0.00 | 0.00 | 84 | 1007.5 |
| 20260509024509 | 73 | 136 | 4.0 | 0.0 | 0.00 | 0.00 | 0.00 | 84 | 1006.9 |
| 20260509023008 | 73 | 123 | 3.0 | 0.0 | 0.00 | 0.00 | 0.00 | 83 | 1007.2 |
| 20260509021507 | 73 | 134 | 2.0 | 0.0 | 0.00 | 0.00 | 0.00 | 83 | 1007.3 |
| 20260509020006 | 73 | 131 | 1.0 | 0.0 | 0.00 | 0.00 | 0.00 | 82 | 1007.2 |
| 20260509014509 | 73 | 125 | 0.0 | 0.0 | 0.00 | 0.00 | 0.00 | 81 | 1007.4 |
| 20260509013005 | 73 | 125 | 0.0 | 0.0 | 0.00 | 0.00 | 0.00 | 81 | 1007.3 |
| 20260509011504 | 74 | 124 | 0.0 | 0.0 | 0.00 | 0.00 | 0.00 | 80 | 1007.0 |
| 20260509010010 | 74 | 124 | 0.0 | 0.0 | 0.00 | 0.00 | 0.00 | 80 | 1006.8 |
| 20260509004502 | 74 | 131 | 1.0 | 0.0 | 0.00 | 0.00 | 0.00 | 80 | 1006.5 |
| 20260509003101 | 74 | 141 | 1.0 | 0.0 | 0.00 | 0.00 | 0.00 | 79 | 1006.6 |
| 20260509003002 | 74 | 134 | 1.0 | 0.0 | 0.00 | 0.00 | 0.00 | 79 | 1006.7 |
| 20260509001559 | 74 | 134 | 0.0 | 0.0 | 0.00 | 0.00 | 0.00 | 78 | 1006.8 |
| 20260509000059 | 74 | 134 | 0.0 | 0.0 | 0.00 | 0.00 | 0.00 | 78 | 1006.9 |
| 20260508234556 | 74 | 134 | 0.0 | 0.0 | 0.00 | 0.00 | 0.00 | 78 | 1007.2 |
| 20260508233109 | 74 | 132 | 1.0 | 0.0 | 0.00 | 0.00 | 0.00 | 78 | 1007.0 |
| 20260508231555 | 74 | 134 | 1.0 | 0.0 | 0.00 | 0.00 | 0.00 | 78 | 1007.1 |
| 20260508230100 | 74 | 146 | 4.0 | 0.0 | 0.00 | 0.00 | 0.00 | 77 | 1007.1 |
| 20260508224555 | 74 | 144 | 4.0 | 0.0 | 0.00 | 0.00 | 0.00 | 77 | 1007.1 |
| 20260508223053 | 74 | 128 | 3.0 | 0.0 | 0.00 | 0.00 | 0.00 | 77 | 1007.2 |
| 20260508221552 | 74 | 138 | 5.0 | 0.0 | 0.00 | 0.00 | 0.00 | 78 | 1007.2 |
| 20260508220050 | 73 | 134 | 4.0 | 0.0 | 0.00 | 0.00 | 0.00 | 79 | 1007.3 |
| 20260508214548 | 72 | 98 | 4.0 | 0.0 | 0.00 | 0.00 | 0.00 | 79 | 1007.5 |
| 20260508213046 | 72 | 118 | 3.0 | 0.0 | 0.00 | 0.00 | 0.00 | 78 | 1007.7 |
| 20260508211545 | 72 | 147 | 0.0 | 0.0 | 0.00 | 0.00 | 0.00 | 80 | 1008.3 |
| 20260508210045 | 70 | 118 | 1.0 | 0.0 | 0.00 | 0.00 | 0.00 | 82 | 1008.7 |
| 20260508204544 | 70 | 191 | 0.0 | 0.0 | 0.00 | 0.00 | 0.00 | 85 | 1008.9 |
| 20260508203044 | 69 | 202 | 1.0 | 0.0 | 0.00 | 0.00 | 0.00 | 83 | 1008.8 |
| 20260508201543 | 69 | 106 | 2.0 | 0.0 | 0.00 | 0.00 | 0.00 | 81 | 1008.6 |